Regional Weather Roundup
Issued by NWS

Home | Current Version | Previous Version | Text Only | Print | Product List | Glossary Off
Versions: 1 2 3 4 5 6 7 8 9 10 11 12 13 14 15 16 17 18 19 20 21 22 23 24 25 26 27 28 29 30 31 32 33 34 35 36 37 38 39 40 41 42 43 44 45 46 47 48 49 50

000
ASUS44 KMEG 310300
RWRTN
TENNESSEE HOURLY STATE WEATHER ROUNDUP
NATIONAL WEATHER SERVICE MEMPHIS TN
1000 PM CDT WED JUL 30 2014

TNZ002-004-019-021-049-052-054-088>092-310400-
WEST TENNESSEE

CITY           SKY/WX    TMP DP  RH WIND       PRES   REMARKS
MEMPHIS INTL   CLOUDY    77  61  57 N5        30.07R
NWS MEMPHIS      N/A     73 N/A N/A MISG        N/A
JACKSON        CLOUDY    70  65  84 CALM      30.07S
DYERSBURG      CLOUDY    70  57  64 CALM      30.08R
UNION CITY     PTCLDY    68  64  88 CALM      30.06S
PARIS          CLEAR     63  59  88 E3        30.08S
LEXINGTON      CLEAR     66  64  94 CALM      30.07S
SAVANNAH       CLEAR     66  66 100 CALM      30.09R
$$

TNZ008-025-027-028-033-062-065-066-310400-
NORTH MIDDLE TENNESSEE

CITY           SKY/WX    TMP DP  RH WIND       PRES   REMARKS
NASHVILLE      CLOUDY    69  57  65 CALM      30.09R
CLARKSVILLE    MOCLDY    67  59  75 CALM      30.08R
COOKEVILLE     CLEAR     64  63  94 CALM      30.10S
CROSSVILLE     MOCLDY    64  60  87 CALM      30.14R
$$

TNZ061-075-076-078-094-096-097-310400-
SOUTH MIDDLE TENNESSEE

CITY           SKY/WX    TMP DP  RH WIND       PRES   REMARKS
TULLAHOMA      CLEAR     64  59  82 CALM      30.11S
WINCHESTER     CLEAR     64  61  88 CALM      30.10S
SHELBYVILLE    CLEAR     66  64  94 CALM      30.10S
$$

TNZ017-018-042-046-047-310400-
NORTHEAST TENNESSEE

CITY           SKY/WX    TMP DP  RH WIND       PRES   REMARKS
TRI CITIES     MOCLDY    61  56  83 CALM      30.14R
ELIZABETHTON   CLEAR     55  54  94 CALM        N/A
$$

TNZ012-013-036-069-073-074-310400-
CENTRAL EAST TENNESSEE

CITY           SKY/WX    TMP DP  RH WIND       PRES   REMARKS
KNOXVILLE      MOCLDY    64  60  87 NE5       30.09S
OAK RIDGE      MOCLDY    65  61  87 CALM      30.11S
GATLINBURG     CLEAR     63  59  88 CALM      30.10S
$$

TNZ083-085-099-310400-
SOUTHEAST TENNESSEE

CITY           SKY/WX    TMP DP  RH WIND       PRES   REMARKS
CHATTANOOGA    MOCLDY    70  59  68 CALM      30.09R
$$

SKY/WX REPORTED AS FAIR MEANS FEW OR NO CLOUDS BELOW
12 THOUSAND FEET.




USA.gov is the U.S. government's official web portal to all federal, state and local government web resources and services.